Overview Statistics Trail Chart Weather Telemetry Raw packets
 

This is the latest recevied weather packets stored in our database for station/object W0WFX-2. If no packets are shown the sender has not sent any weather packets the latest 10 day(s).

<< 54 55 56 57 58 59 60 >>
Time Temp. Humidity Pressure Rain* Wind** Luminosity Snow
1788277474 33.89° C 42% 1016.9 hPa 0 mm - 538 W/m² -
1788277169 33.89° C 43% 1016.9 hPa 0 mm - 521 W/m² -
1788276864 33.33° C 45% 1016.7 hPa 0 mm - 508 W/m² -
1788276564 32.78° C 44% 1016.7 hPa 0 mm - 501 W/m² -
1788276264 33.33° C 43% 1016.9 hPa 0 mm - 488 W/m² -
1788275963 32.78° C 46% 1016.8 hPa 0 mm - 473 W/m² -
1788275658 33.33° C 43% 1016.8 hPa 0 mm - 459 W/m² -
1788275358 32.78° C 46% 1016.9 hPa 0 mm - 447 W/m² -
1788275056 31.67° C 47% 1017 hPa 0 mm - 428 W/m² -
1788274753 31.67° C 49% 1017 hPa 0 mm - 407 W/m² -
1788274453 30.56° C 50% 1017 hPa 0 mm - 117 W/m² -
1788274148 30° C 52% 1017 hPa 0 mm - 386 W/m² -
1788273843 29.44° C 52% 1017 hPa 0 mm - 367 W/m² -
1788273539 28.89° C 55% 1016.9 hPa 0 mm - 253 W/m² -
1788273235 28.89° C 55% 1016.9 hPa 0 mm - 90 W/m² -
1788272931 28.33° C 55% 1017 hPa 0 mm - 89 W/m² -
1788272630 28.33° C 56% 1017 hPa 0 mm - 80 W/m² -
1788272325 28.33° C 56% 1017.1 hPa 0 mm - 78 W/m² -
1788272020 27.78° C 56% 1017 hPa 0 mm - 78 W/m² -
1788271719 27.78° C 57% 1017.1 hPa 0 mm - 74 W/m² -
1788271417 27.78° C 59% 1017 hPa 0 mm - 91 W/m² -
1788271113 27.22° C 61% 1017.1 hPa 0 mm - 100 W/m² -
1788270808 26.67° C 62% 1017.1 hPa 0 mm - 65 W/m² -
1788270504 26.67° C 62% 1017.1 hPa 0 mm - 63 W/m² -
1788270199 26.67° C 64% 1017.2 hPa 0 mm - 61 W/m² -

* Rain latest hour (hover to see other rain measurements)
** Current wind speed in m/s (hover to see current wind gust speed)